Weather History for PAPG - December, 2011

Change the Weather History Date:

Tuesday, December 13, 2011

  Actual Average Record
Temperature  
Mean Temperature 30 °F -  
Max Temperature 33 °F 34 °F 48 °F (2014)
Min Temperature 28 °F 28 °F 15 °F (2000)
Degree Days  
Heating Degree Days 34    
Moisture  
Dew Point 30 °F    
Average Humidity 94    
Maximum Humidity 100    
Minimum Humidity 87    
Precipitation  
Precipitation 0.00 in - - ()
Sea Level Pressure  
Sea Level Pressure 29.91 in    
Wind  
Wind Speed 2 mph (WSW)    
Max Wind Speed 6 mph    
Max Gust Speed -    
Visibility 5 miles    
Events      
Averages and records for this station are not official NWS values.
T = Trace of Precipitation, MM = Missing Value Source: NWS Daily Summary

Daily Weather History Graph

Daily Weather History Graph

Search for Another Location

Airport or City:

Trip Planner

Search our weather history database for the weather conditions in past years. The results will help you decide how hot, cold, wet, or windy it might be!

Date:

Astronomy

Dec. 13, 2011 Rise Set
Actual Time 8:20 AM AKST 3:11 PM AKST
Civil Twilight 7:31 AM AKST 3:59 PM AKST
Nautical Twilight 6:41 AM AKST 4:50 PM AKST
Astronomical Twilight 5:55 AM AKST 5:36 PM AKST
Moon 7:01 PM AKST (12/13) 10:12 AM AKST (12/13)
Length of Visible Light 8h 28m
Length of Day
6h 50m
Waning Gibbous, 89% of the Moon is Illuminated
Dec 13
Waning Gibbous
Dec 17
Last Quarter
Dec 24
New
Dec 31
First Quarter
Jan 8
Full

Hourly Weather History & Observations

Time (AKST) Temp. Windchill Dew Point Humidity Pressure Visibility Wind Dir Wind Speed Gust Speed Precip Events Conditions
12:16 AM 30.2 °F 26.7 °F 30.2 °F 100% 29.89 in 0.5 mi WSW 3.5 mph - N/A   Overcast
12:36 AM 30.2 °F 26.7 °F 28.4 °F 93% 29.89 in 1.2 mi West 3.5 mph - N/A   Overcast
12:56 AM 30.2 °F - 28.4 °F 93% 29.89 in 10.0 mi Calm Calm - N/A   Scattered Clouds
1:16 AM 28.4 °F 24.6 °F 26.6 °F 93% 29.88 in 0.2 mi WSW 3.5 mph - N/A   Overcast
1:36 AM 30.2 °F 26.7 °F 28.4 °F 93% 29.88 in 0.2 mi West 3.5 mph - N/A   Overcast
1:56 AM 30.2 °F - 28.4 °F 93% 29.88 in 0.2 mi Calm Calm - N/A   Overcast
2:16 AM 30.2 °F - 30.2 °F 100% 29.88 in 0.2 mi Calm Calm - N/A   Overcast
2:36 AM 30.2 °F 24.3 °F 28.4 °F 93% 29.88 in 0.2 mi West 5.8 mph - N/A   Overcast
2:56 AM 30.2 °F - 28.4 °F 93% 29.88 in 0.5 mi Calm Calm - N/A   Mostly Cloudy
3:16 AM 30.2 °F 25.4 °F 28.4 °F 93% 29.87 in 0.2 mi West 4.6 mph - N/A   Mostly Cloudy
3:36 AM 30.2 °F 25.4 °F 28.4 °F 93% 29.87 in 0.2 mi West 4.6 mph - N/A   Overcast
3:56 AM 30.2 °F 25.4 °F 28.4 °F 93% 29.87 in 0.2 mi West 4.6 mph - N/A   Overcast
4:16 AM 30.2 °F - 30.2 °F 100% 29.87 in 1.8 mi Calm Calm - N/A   Overcast
4:36 AM 30.2 °F 26.7 °F 30.2 °F 100% 29.87 in 1.2 mi SW 3.5 mph - N/A   Overcast
4:56 AM 30.2 °F - 30.2 °F 100% 29.87 in 10.0 mi Calm Calm - N/A   Overcast
5:16 AM 30.2 °F - 30.2 °F 100% 29.86 in 10.0 mi Calm Calm - N/A   Overcast
5:36 AM 32.0 °F - 30.2 °F 93% 29.86 in 10.0 mi Calm Calm - N/A   Mostly Cloudy
5:56 AM 30.2 °F - 28.4 °F 93% 29.86 in 10.0 mi Calm Calm - N/A   Mostly Cloudy
6:16 AM 30.2 °F 25.4 °F 30.2 °F 100% 29.86 in 9.0 mi SW 4.6 mph - N/A   Mostly Cloudy
6:36 AM 30.2 °F 25.4 °F 30.2 °F 100% 29.86 in 10.0 mi WNW 4.6 mph - N/A   Mostly Cloudy
6:56 AM 30.2 °F 24.3 °F 28.4 °F 93% 29.87 in 0.2 mi West 5.8 mph - N/A   Mostly Cloudy
7:16 AM 30.2 °F 26.7 °F 28.4 °F 93% 29.87 in 0.2 mi WSW 3.5 mph - N/A   Mostly Cloudy
7:36 AM 30.2 °F - 28.4 °F 93% 29.87 in 0.2 mi Calm Calm - N/A   Mostly Cloudy
7:56 AM 30.2 °F - 30.2 °F 100% 29.87 in 0.5 mi Calm Calm - N/A   Overcast
8:16 AM 30.2 °F 26.7 °F 28.4 °F 93% 29.88 in 7.0 mi West 3.5 mph - N/A   Mostly Cloudy
8:36 AM 30.2 °F 24.3 °F 28.4 °F 93% 29.89 in 0.5 mi West 5.8 mph - N/A   Overcast
8:56 AM 30.2 °F 26.7 °F 30.2 °F 100% 29.89 in 0.5 mi SSW 3.5 mph - N/A   Overcast
9:16 AM 32.0 °F 26.4 °F 30.2 °F 93% 29.90 in 7.0 mi West 5.8 mph - N/A   Overcast
9:36 AM 32.0 °F 26.4 °F 30.2 °F 93% 29.90 in 0.8 mi WSW 5.8 mph - N/A   Overcast
9:56 AM 32.0 °F 27.5 °F 30.2 °F 93% 29.91 in 1.8 mi WSW 4.6 mph - N/A   Overcast
10:16 AM 32.0 °F 27.5 °F 30.2 °F 93% 29.91 in 1.5 mi West 4.6 mph - N/A   Overcast
10:36 AM 32.0 °F 28.7 °F 30.2 °F 93% 29.91 in 1.2 mi WSW 3.5 mph - N/A   Mostly Cloudy
10:56 AM 32.0 °F 28.7 °F 30.2 °F 93% 29.91 in 0.5 mi West 3.5 mph - N/A   Mostly Cloudy
11:16 AM 32.0 °F - 30.2 °F 93% 29.91 in 0.2 mi Calm Calm - N/A   Mostly Cloudy
11:36 AM 32.0 °F 28.7 °F 30.2 °F 93% 29.92 in 7.0 mi West 3.5 mph - N/A   Mostly Cloudy
11:56 AM 32.0 °F 28.7 °F 30.2 °F 93% 29.92 in 10.0 mi West 3.5 mph - N/A   Mostly Cloudy
12:16 PM 32.0 °F 28.7 °F 30.2 °F 93% 29.92 in 10.0 mi WNW 3.5 mph - N/A   Mostly Cloudy
12:36 PM 32.0 °F - 30.2 °F 93% 29.93 in 10.0 mi Calm Calm - N/A   Overcast
12:56 PM 32.0 °F 28.7 °F 30.2 °F 93% 29.93 in 1.0 mi WSW 3.5 mph - N/A   Overcast
1:16 PM 33.8 °F - 30.2 °F 87% 29.94 in 1.8 mi Calm Calm - N/A   Overcast
1:36 PM 33.8 °F 30.8 °F 30.2 °F 87% 29.94 in 10.0 mi WSW 3.5 mph - N/A   Overcast
1:56 PM 33.8 °F - 30.2 °F 87% 29.95 in 10.0 mi Calm Calm - N/A   Mostly Cloudy
2:16 PM 33.8 °F - 30.2 °F 87% 29.95 in 10.0 mi Calm Calm - N/A   Mostly Cloudy
2:36 PM 33.8 °F 30.8 °F 30.2 °F 87% 29.96 in 10.0 mi SSW 3.5 mph - N/A   Mostly Cloudy
2:56 PM 33.8 °F 30.8 °F 32.0 °F 93% 29.97 in 10.0 mi SW 3.5 mph - N/A   Mostly Cloudy
3:16 PM 33.8 °F - 32.0 °F 93% 29.97 in 10.0 mi Calm Calm - N/A   Mostly Cloudy
3:36 PM 33.8 °F - 30.2 °F 87% 29.98 in 10.0 mi Calm Calm - N/A   Mostly Cloudy
3:56 PM 33.8 °F - 30.2 °F 87% 29.98 in 10.0 mi Calm Calm - N/A   Overcast
4:16 PM 32.0 °F - 30.2 °F 93% 29.98 in 10.0 mi Calm Calm - N/A   Overcast
4:36 PM 33.8 °F - 30.2 °F 87% 29.98 in 10.0 mi Calm Calm - N/A   Overcast
4:56 PM 32.0 °F 28.7 °F 30.2 °F 93% 29.99 in 10.0 mi SW 3.5 mph - N/A   Overcast
5:16 PM 32.0 °F - 30.2 °F 93% 29.99 in 10.0 mi Calm Calm - N/A   Overcast
5:36 PM 32.0 °F - 30.2 °F 93% 29.99 in 10.0 mi Calm Calm - N/A   Overcast
5:56 PM 30.2 °F - 30.2 °F 100% 30.00 in 10.0 mi Calm Calm - N/A   Overcast
6:16 PM 32.0 °F - 30.2 °F 93% 30.00 in 3.0 mi Calm Calm - N/A   Overcast
6:36 PM 32.0 °F - 30.2 °F 93% 30.00 in 3.0 mi Calm Calm - N/A   Overcast
6:56 PM 32.0 °F - 30.2 °F 93% 30.01 in 2.0 mi Calm Calm - N/A   Overcast
7:16 PM 32.0 °F - 30.2 °F 93% 30.01 in 2.0 mi Calm Calm - N/A   Overcast
7:36 PM 32.0 °F - 30.2 °F 93% 30.01 in 2.0 mi Calm Calm - N/A   Overcast
7:56 PM 32.0 °F - 30.2 °F 93% 30.01 in 2.0 mi Calm Calm - N/A   Overcast
8:16 PM 32.0 °F - 30.2 °F 93% 30.01 in 2.0 mi Calm Calm - N/A   Overcast
8:36 PM 32.0 °F - 30.2 °F 93% 30.02 in 2.0 mi Calm Calm - N/A   Overcast
8:56 PM 32.0 °F - 30.2 °F 93% 30.02 in 3.0 mi Calm Calm - N/A   Overcast
9:16 PM 32.0 °F - 30.2 °F 93% 30.03 in 3.0 mi Calm Calm - N/A   Overcast
9:36 PM 32.0 °F - 30.2 °F 93% 30.03 in 3.0 mi Calm Calm - N/A   Overcast
9:56 PM 32.0 °F - 30.2 °F 93% 30.04 in 3.0 mi Calm Calm - N/A   Overcast
10:16 PM 32.0 °F - 30.2 °F 93% 30.04 in 10.0 mi Calm Calm - N/A   Overcast
10:36 PM 32.0 °F - 30.2 °F 93% 30.05 in 10.0 mi Calm Calm - N/A   Overcast
10:56 PM 30.2 °F - 30.2 °F 100% 30.05 in 10.0 mi Calm Calm - N/A   Overcast
11:16 PM 30.2 °F 26.7 °F 30.2 °F 100% 30.06 in 8.0 mi SW 3.5 mph - N/A   Overcast
11:36 PM 32.0 °F - 30.2 °F 93% 30.06 in 10.0 mi Calm Calm - N/A   Overcast
11:56 PM 32.0 °F - 30.2 °F 93% 30.06 in 10.0 mi Calm Calm - N/A   Overcast